Location: Charbonni�res
(45.9952°N, 2.9982°E)
Time: 17:44:38
(UTC+00:00)

NOSS 3-2 (C) - Pass Details

Date: 29 November 2020
Orbit: 789 x 1424 km, 63.4° (Epoch: 09 January)

Event Time Altitude Azimuth Distance (km) Brightness Sun altitude
Exits shadow 04:00:11 74° 223° (SW) 1,352 3.9 -31.8°
Drops below altitude 10° 04:08:30 10° 153° (SSE) 3,466 6.6 -30.4°
Sets 04:11:31 0° 152° (SSE) 4,470 7.3 -29.9°
